CDT,Max TemperatureF,Mean TemperatureF,Min TemperatureF,Max Dew PointF,MeanDew PointF,Min DewpointF,Max Humidity, Mean Humidity, Min Humidity, Max Sea Level PressureIn, Mean Sea Level PressureIn, Min Sea Level PressureIn, Max VisibilityMiles, Mean VisibilityMiles, Min VisibilityMiles, Max Wind SpeedMPH, Mean Wind SpeedMPH, Max Gust SpeedMPH,PrecipitationIn, CloudCover, Events, WindDirDegrees
2014-3-1,35,21,6,24,13,2,88,72,56,30.42,30.24,30.03,10,7,0,20,13,26,0.05,8,Fog-Snow,348
2014-3-2,6,1,-4,2,-6,-15,87,68,49,30.55,30.46,30.37,10,6,1,22,14,27,0.16,5,Snow,347
2014-3-3,15,4,-8,2,-10,-16,69,54,38,30.59,30.51,30.38,10,10,10,12,4,15,0.00,0,,355
2014-3-4,31,21,10,14,9,2,76,59,42,30.36,30.22,30.14,10,10,10,14,7,16,0.00,2,,150
2014-3-5,27,25,22,22,19,13,92,75,57,30.40,30.32,30.20,10,5,0,21,12,26,0.02,7,Fog-Snow,69
2014-3-6,34,23,11,23,18,9,92,77,61,30.38,30.23,30.05,10,8,5,9,7,13,0.00,2,,90
2014-3-7,50,38,25,36,28,21,89,71,52,30.04,29.96,29.88,10,7,3,16,9,21,0.00,1,,224
2014-3-8,36,32,28,31,30,23,89,81,72,30.31,30.16,30.02,10,4,2,16,8,19,0.01,7,Rain,346
2014-3-9,48,35,22,36,29,21,92,76,60,30.32,30.10,29.85,10,9,3,21,10,27,0.00,0,,217
2014-3-10,59,50,40,43,36,32,85,68,50,29.85,29.75,29.69,10,10,10,17,8,23,0.00,0,,228
2014-3-11,51,42,33,42,36,33,92,79,65,29.80,29.67,29.58,10,8,2,30,13,40,0.28,4,Rain-Snow-Thunderstorm,38
2014-3-12,35,30,24,32,25,20,96,76,56,30.16,29.96,29.77,10,8,1,24,13,35,0.10,5,Snow,333
2014-3-13,54,38,21,41,30,19,92,76,62,30.14,30.01,29.82,10,10,8,17,6,24,0.00,1,,194
2014-3-14,57,45,33,34,31,29,76,58,40,29.97,29.79,29.68,10,10,10,26,13,36,0.00,1,,267
2014-3-15,52,41,30,34,29,25,85,65,45,30.14,30.05,29.98,10,10,10,28,12,37,0.00,2,,46
2014-3-16,35,27,19,30,19,11,92,74,55,30.34,30.23,30.16,10,6,0,26,16,37,0.08,5,Fog-Snow,51
2014-3-17,40,25,9,23,16,8,92,70,48,30.14,29.90,29.74,10,10,10,15,8,20,0.00,0,,146
2014-3-18,57,46,34,39,33,21,82,67,51,29.75,29.66,29.56,10,10,9,25,12,33,T,2,Rain,153
2014-3-19,48,39,30,41,32,26,92,78,64,30.09,29.86,29.54,10,8,2,24,13,31,T,7,Rain,283
2014-3-20,54,42,30,33,30,26,85,62,38,30.08,30.01,29.93,10,10,10,16,8,21,0.00,2,,107
2014-3-21,61,47,33,39,34,30,82,62,42,30.05,29.87,29.75,10,10,8,26,12,36,0.00,2,,23
2014-3-22,41,33,25,28,21,13,75,56,37,30.43,30.26,30.07,10,10,9,21,13,27,0.00,6,,329
2014-3-23,35,27,19,13,10,7,68,51,33,30.53,30.46,30.39,10,10,10,20,11,25,0.00,1,,354
2014-3-24,38,30,22,30,21,12,100,69,38,30.42,30.25,30.14,10,7,1,15,5,21,0.01,6,Snow,266
2014-3-25,31,25,18,29,17,10,96,71,46,30.32,30.23,30.13,10,8,1,25,10,35,0.00,3,Snow,322
2014-3-26,48,32,16,30,16,11,80,54,28,30.30,30.14,29.89,10,10,10,24,13,31,0.01,3,Rain,165
2014-3-27,54,46,37,51,41,34,100,86,71,29.88,29.59,29.39,10,8,3,30,16,40,0.29,8,Rain-Thunderstorm,177
2014-3-28,41,39,36,37,33,31,92,81,70,30.18,30.01,29.62,10,9,7,22,8,34,0.00,8,,323
2014-3-29,51,43,34,32,31,29,89,68,46,30.26,30.22,30.17,10,8,6,14,6,17,0.00,5,,340
2014-3-30,65,47,28,37,33,28,92,62,31,30.25,30.10,29.94,10,8,4,22,12,28,0.00,0,,173
2014-3-31,70,56,41,49,39,28,77,54,31,29.95,29.77,29.61,10,10,8,32,18,43,0.03,2,Rain,185